Location: Mohawk View
(42.7837°N, 73.7885°W)
Time: 13:36:24
(UTC+00:00)

Cosmos 2228 - Pass Details

Date: 17 June 2021
Orbit: 588 x 618 km, 82.5° (Epoch: 30 July)

Event Time Altitude Azimuth Distance (km) Brightness Sun altitude
Rises 03:44:37 0° 350° (N) 2,902 8.0 -21.8°
Reaches altitude 10° 03:46:51 10° 350° (N) 1,992 6.8 -21.9°
Maximum altitude 03:51:16 83° 264° (W) 629 3.0 -22.2°
Enters shadow 03:51:49 68° 192° (SSW) 670 2.9 -22.2°
